Regional Weather Roundup
Issued by NWS Sioux Falls, SD

Home | Current Version | Previous Version | Text Only | Print | Product List | Glossary On
Versions: 1 2 3 4 5 6 7 8 9 10 11 12 13 14 15 16 17 18 19 20 21 22 23 24 25 26 27 28 29 30 31 32 33 34 35 36 37 38 39 40 41 42 43 44 45 46 47 48 49 50
000
ASUS43 KFSD 200910
RWRFSD

WEATHER ROUNDUP FOR SE SOUTH DAKOTA/SW MINNESOTA/NW IOWA
NATIONAL WEATHER SERVICE SIOUX FALLS SD
300 AM CST SAT JAN 20 2018

NOTE: "FAIR" INDICATES FEW OR NO CLOUDS BELOW 12,000 FEET WITH NO
SIGNIFICANT WEATHER AND OR OBSTRUCTIONS TO VISIBILITY.


SDZ038>040-050-052>070-201000-
SOUTHEAST SOUTH DAKOTA

CITY           SKY/WX    TMP DP  RH WIND       PRES   REMARKS
BROOKINGS      PTCLDY    30  28  92 MISG        N/A
CHAMBERLAIN    MOCLDY    32  32  99 W5        29.83S WCI  28
HURON          MOCLDY    27  25  92 NW5       29.82R WCI  22
MADISON        FAIR      30  30 100 NW7       29.80R WCI  23
MITCHELL       CLEAR     29  27  92 W5        29.83R WCI  24
SIOUX FALLS    CLOUDY    28  27  96 W3        29.80R
WINNER         FAIR      33  29  85 NW5       29.82R WCI  29
YANKTON        CLOUDY    32  28  85 W7        29.81R WCI  26
$$

MNZ071-072-080-081-089-090-097-098-201000-
SOUTHWEST MINNESOTA

CITY           SKY/WX    TMP DP  RH WIND       PRES   REMARKS
FAIRMONT       CLOUDY    31  28  89 N5        29.78R WCI  26
JACKSON        CLOUDY    32  28  86 N5        29.78R WCI  27
LUVERNE        CLOUDY    28  27  93 CALM      29.79R
MARSHALL       CLOUDY    31  27  85 W6        29.80R WCI  25
MONTEVIDEO     CLOUDY    30  27  86 NW6       29.78S WCI  24
PIPESTONE      CLEAR     30  27  86 N6        29.78R WCI  24
REDWOOD FALLS  PTCLDY    31  27  85 W6        29.78R WCI  25
TRACY          PTCLDY    33  29  86 W5        29.79R WCI  29
WINDOM         CLEAR     36  19  51 NW8       29.78R
WORTHINGTON    CLOUDY    28  26  92 NW10      29.78R WCI  19
$$

IAZ001>003-012>014-020>022-031-032-NEZ013-014-SDZ071-201000-
NORTHWEST IOWA

CITY           SKY/WX    TMP DP  RH WIND       PRES   REMARKS
CHEROKEE       MOCLDY    27  27 100 CALM      29.79R
DENISON        CLOUDY    27  27 100 CALM      29.80R
ESTHERVILLE    CLOUDY    30  28  92 NW5       29.77R WCI  25
LE MARS        CLOUDY    25  25 100 CALM      29.80R
ORANGE CITY    CLOUDY    30  30 100 NW5       29.79R WCI  25
SHELDON        CLOUDY    27  27 100 CALM      29.77R
SIOUX CITY     CLOUDY    28  27  96 CALM      29.80R
SPENCER        CLOUDY    26  23  88 W3        29.78R
STORM LAKE     CLOUDY    34  28  80 CALM      29.78R
$$

ABBREVIATIONS USED IN REMARKS
   TC - TEMPERATURE IN CELSIUS
  WCI - WIND CHILL INDEX
   HX - HEAT INDEX
  VSB - VISIBILITY




USA.gov is the U.S. government's official web portal to all federal, state and local government web resources and services.